Satellite: AEROCUB3
Catalog number: 35005
Epoch time:      10098.80297784
Element set:     270
Inclination:      040.4724 deg
RA of node:       265.0324 deg
Eccentricity:    0.0019566
Arg of perigee:   228.1403 deg
Mean anomaly:     131.7764 deg
Mean motion:   15.47157148 rev/day
Decay rate:     5.6845e-04 rev/day^2
Epoch rev:            4998
Checksum:              315

Satellite: DRAGNSAT
Catalog number: 35690
Epoch time:      10076.22711312
Element set:     316
Inclination:      051.6170 deg
RA of node:       315.4586 deg
Eccentricity:    0.0004999
Arg of perigee:   310.9891 deg
Mean anomaly:     057.3269 deg
Mean motion:   16.42150010 rev/day
Decay rate:   5.715194e-02 rev/day^2
Epoch rev:            3656
Checksum:              289

Satellite: POLLUX
Catalog number: 35693
Epoch time:      10087.99866888
Element set:     352
Inclination:      051.6099 deg
RA of node:       254.5746 deg
Eccentricity:    0.0006270
Arg of perigee:   294.4866 deg
Mean anomaly:     097.5899 deg
Mean motion:   16.52338462 rev/day
Decay rate:  2.3496735e-01 rev/day^2
Epoch rev:            3839
Checksum:              384

Satellite: CASTOR
Catalog number: 35694
Epoch time:      10098.77091105
Element set:     263
Inclination:      051.6386 deg
RA of node:       209.1601 deg
Eccentricity:    0.0004118
Arg of perigee:   304.2432 deg
Mean anomaly:     055.8175 deg
Mean motion:   15.92841645 rev/day
Decay rate:     7.5915e-04 rev/day^2
Epoch rev:            3996
Checksum:              303

Satellite: METEOR-M
Catalog number: 35865
Epoch time:      10098.74780315
Element set:     189
Inclination:      098.7657 deg
RA of node:       153.0185 deg
Eccentricity:    0.0001920
Arg of perigee:   189.1912 deg
Mean anomaly:     170.9195 deg
Mean motion:   14.21829466 rev/day
Decay rate:       1.76e-06 rev/day^2
Epoch rev:            2885
Checksum:              328

Satellite: RS-38
Catalog number: 35869
Epoch time:      10098.79704852
Element set:     191
Inclination:      098.7644 deg
RA of node:       153.0947 deg
Eccentricity:    0.0004032
Arg of perigee:   198.4037 deg
Mean anomaly:     161.6986 deg
Mean motion:   14.21978826 rev/day
Decay rate:       1.77e-06 rev/day^2
Epoch rev:            2886
Checksum:              355

/EX


_______________________________________________
Via the Keps mailing list courtesy of AMSAT-NA
http://amsat.org/mailman/listinfo/keps

--- ViaMAIL!/WC v1.60d
 * Origin: Chowdanet (401-724-4410) telnet://chowdanet.com  (1:323/120)